GW2328 Weather Reports


time (UTC)temp
C
wind
direction
speed
KPH
gust
KPH
rain 1hr
cm
rain 24hr
cm
rain mn
cm
humidity
%
barometer
mb
20260906095954 23 129 0.0 1.6 0.00 0.00 0.00 95 1017.6
20260906095449 23 144 0.0 1.6 0.00 0.00 0.00 95 1017.6
20260906094944 22 148 0.0 0.0 0.00 0.00 0.00 95 1017.5
20260906094438 22 148 0.0 0.0 0.00 0.00 0.00 95 1017.3
20260906093934 22 146 0.0 0.0 0.00 0.00 0.00 95 1017.5
20260906093430 22 144 0.0 0.0 0.00 0.00 0.00 95 1017.2
20260906092930 22 146 0.0 0.0 0.00 0.00 0.00 95 1017.3
20260906092430 22 146 0.0 0.0 0.00 0.00 0.00 95 1017.4
20260906091925 22 138 0.0 0.0 0.00 0.00 0.00 95 1017.0
20260906091421 22 144 0.0 0.0 0.00 0.00 0.00 95 1017.2
20260906090917 22 142 0.0 0.0 0.00 0.00 0.00 95 1017.3
20260906090412 22 142 0.0 0.0 0.00 0.00 0.00 95 1017.2
20260906085906 23 136 0.0 0.0 0.00 0.00 0.00 94 1017.0
20260906085400 23 143 0.0 0.0 0.00 0.00 0.00 94 1016.9
20260906084900 23 141 0.0 0.0 0.00 0.00 0.00 94 1017.3
20260906084354 23 139 0.0 0.0 0.00 0.00 0.00 94 1017.0
20260906083848 23 141 0.0 0.0 0.00 0.00 0.00 94 1016.9
20260906083344 23 139 0.0 0.0 0.00 0.00 0.00 94 1016.9
20260906082843 23 140 0.0 0.0 0.00 0.00 0.00 94 1017.2
20260906082339 23 140 0.0 0.0 0.00 0.00 0.00 94 1017.0
20260906081835 23 140 0.0 0.0 0.00 0.00 0.00 94 1017.3
20260906081330 23 140 0.0 0.0 0.00 0.00 0.00 94 1017.0
20260906080826 23 139 0.0 0.0 0.00 0.00 0.00 94 1017.2
20260906080322 23 147 0.0 0.0 0.00 0.00 0.00 93 1017.0
20260906075821 23 147 0.0 0.0 0.00 0.00 0.00 93 1017.0
20260906075316 23 145 0.0 0.0 0.00 0.00 0.00 93 1017.2
20260906074811 23 147 0.0 0.0 0.00 0.00 0.00 93 1016.8
20260906074311 23 151 0.0 0.0 0.00 0.00 0.00 93 1016.8
20260906073810 23 146 0.0 0.0 0.00 0.00 0.00 93 1016.8
20260906073305 23 148 0.0 0.0 0.00 0.00 0.00 93 1016.8
20260906072802 23 140 0.0 0.0 0.00 0.00 0.00 93 1016.9
20260906072257 23 144 0.0 1.6 0.00 0.00 0.00 93 1017.0
20260906071752 23 142 0.0 0.0 0.00 0.00 0.00 93 1016.8
20260906071253 23 149 0.0 1.6 0.00 0.00 0.00 93 1017.0
20260906070749 23 146 0.0 0.0 0.00 0.00 0.00 93 1016.8
20260906070244 23 141 0.0 0.0 0.00 0.00 0.00 93 1016.9
20260906065744 23 143 0.0 0.0 0.00 0.00 0.00 94 1017.2
20260906065239 23 142 0.0 0.0 0.00 0.00 0.00 94 1017.0
20260906064735 24 149 1.6 1.6 0.00 0.00 0.00 94 1017.0
20260906064231 24 147 0.0 0.0 0.00 0.00 0.00 94 1017.0
20260906063725 24 148 0.0 0.0 0.00 0.00 0.00 94 1017.0
20260906063221 24 149 0.0 0.0 0.00 0.00 0.00 94 1017.3
20260906062716 24 137 0.0 0.0 0.00 0.00 0.00 94 1017.3
20260906062215 24 143 0.0 0.0 0.00 0.00 0.00 94 1017.0
20260906061712 24 140 0.0 0.0 0.00 0.00 0.00 94 1017.3
20260906061207 24 129 0.0 0.0 0.00 0.00 0.00 94 1017.2
20260906060703 24 142 0.0 0.0 0.00 0.00 0.00 94 1017.4
20260906060200 24 139 0.0 0.0 0.00 0.00 0.00 93 1017.3
20260906055655 24 141 0.0 0.0 0.00 0.00 0.00 93 1017.2
20260906055150 24 141 0.0 0.0 0.00 0.00 0.00 93 1017.0
20260906054646 24 141 0.0 0.0 0.00 0.00 0.00 93 1017.2
20260906054140 25 141 0.0 0.0 0.00 0.00 0.00 93 1017.4
20260906053637 25 141 0.0 0.0 0.00 0.00 0.00 93 1017.3
20260906053137 25 140 0.0 0.0 0.00 0.00 0.00 93 1017.3
20260906052633 25 140 0.0 0.0 0.00 0.00 0.00 92 1017.4
20260906052130 25 147 0.0 0.0 0.00 0.00 0.00 92 1017.3
20260906051626 25 147 0.0 0.0 0.00 0.00 0.00 92 1017.3
20260906051126 25 148 0.0 0.0 0.00 0.00 0.00 92 1017.3
20260906050621 25 144 0.0 0.0 0.00 0.00 0.00 92 1017.2
20260906050116 25 143 0.0 0.0 0.00 0.00 0.00 92 1017.2
20260906045614 25 143 0.0 0.0 0.00 0.00 0.00 92 1017.3
20260906045110 25 143 0.0 0.0 0.00 0.00 0.00 91 1017.0
20260906044606 25 143 0.0 0.0 0.00 0.00 0.00 92 1016.7
20260906044101 25 140 0.0 0.0 0.00 0.00 0.00 91 1016.7
20260906043557 25 139 0.0 0.0 0.00 0.00 0.00 91 1016.7
20260906043053 25 137 0.0 0.0 0.00 0.00 0.00 91 1016.5
20260906042551 25 146 0.0 0.0 0.00 0.00 0.00 91 1016.5
20260906042046 25 146 0.0 0.0 0.00 0.00 0.00 91 1016.4
20260906041543 25 146 0.0 0.0 0.00 0.00 0.00 91 1016.4
20260906041037 25 146 0.0 0.0 0.00 0.00 0.00 91 1016.6
20260906040532 25 146 0.0 0.0 0.00 0.00 0.00 91 1016.4
20260906040028 25 146 0.0 0.0 0.00 0.00 0.00 91 1016.4
20260906035523 25 147 0.0 0.0 0.00 0.00 0.00 90 1016.4
20260906035019 25 147 0.0 0.0 0.00 0.00 0.00 90 1016.4
20260906034518 25 147 0.0 0.0 0.00 0.00 0.00 90 1016.4
20260906034014 25 146 0.0 1.6 0.00 0.00 0.00 90 1016.3
20260906033508 25 154 0.0 1.6 0.00 0.00 0.00 90 1016.3
20260906033004 26 146 0.0 0.0 0.00 0.00 0.00 89 1016.3
20260906032500 26 143 0.0 0.0 0.00 0.00 0.00 89 1016.5
20260906031954 26 140 1.6 3.2 0.00 0.00 0.00 89 1016.3
20260906031450 26 137 0.0 0.0 0.00 0.00 0.00 89 1016.1
20260906030945 26 144 0.0 0.0 0.00 0.00 0.00 89 1016.0
20260906030440 26 146 0.0 0.0 0.00 0.00 0.00 88 1016.1
20260906025934 26 148 0.0 0.0 0.00 0.00 0.00 88 1016.1
20260906025428 26 144 0.0 1.6 0.00 0.00 0.00 88 1016.1
20260906024927 26 144 0.0 0.0 0.00 0.00 0.00 87 1016.2
20260906024426 26 144 0.0 0.0 0.00 0.00 0.00 87 1016.2
20260906023922 26 143 0.0 0.0 0.00 0.00 0.00 87 1016.2
20260906023418 26 144 0.0 0.0 0.00 0.00 0.00 86 1016.3
20260906022918 26 145 0.0 0.0 0.00 0.00 0.00 86 1015.9
20260906022413 26 144 0.0 0.0 0.00 0.00 0.00 86 1016.2
20260906021909 26 144 0.0 0.0 0.00 0.00 0.00 85 1015.8
20260906021408 27 144 0.0 0.0 0.00 0.00 0.00 85 1015.8
20260906020903 27 143 0.0 0.0 0.00 0.00 0.00 85 1015.9
20260906020357 27 143 0.0 0.0 0.00 0.00 0.00 84 1015.8
20260906015852 27 143 0.0 0.0 0.00 0.00 0.00 84 1015.9
20260906015351 27 144 0.0 0.0 0.00 0.00 0.00 84 1015.8
20260906014850 27 147 0.0 0.0 0.00 0.00 0.00 83 1015.5
20260906014345 27 139 0.0 0.0 0.00 0.00 0.00 83 1015.8
20260906013841 27 139 0.0 0.0 0.00 0.00 0.00 82 1015.6
20260906013336 27 139 0.0 0.0 0.00 0.00 0.00 82 1015.6
20260906012832 27 139 0.0 0.0 0.00 0.00 0.00 81 1015.8
20260906012327 27 138 0.0 0.0 0.00 0.00 0.00 81 1015.4
20260906011826 28 138 0.0 0.0 0.00 0.00 0.00 80 1015.6
20260906011322 28 143 0.0 0.0 0.00 0.00 0.00 79 1015.4
20260906010818 28 143 0.0 0.0 0.00 0.00 0.00 78 1015.2
20260906010314 28 146 0.0 1.6 0.00 0.00 0.00 78 1015.1
20260906005809 28 138 0.0 1.6 0.00 0.00 0.00 77 1015.3
20260906005307 28 151 0.0 0.0 0.00 0.00 0.00 76 1015.1
20260906004806 29 142 0.0 0.0 0.00 0.00 0.00 75 1015.2
20260906004301 29 142 0.0 0.0 0.00 0.00 0.00 74 1015.0
20260906003756 29 142 0.0 0.0 0.00 0.00 0.00 74 1015.1
20260906003252 30 142 0.0 0.0 0.00 0.00 0.00 73 1015.0
20260906002747 30 142 0.0 0.0 0.00 0.00 0.00 72 1014.9
20260906002247 30 142 0.0 0.0 0.00 0.00 0.00 71 1015.1
20260906001742 30 142 0.0 0.0 0.00 0.00 0.00 70 1014.9
20260906001237 30 142 0.0 0.0 0.00 0.00 0.00 69 1015.2
20260906000733 31 140 0.0 0.0 0.00 0.00 0.00 67 1015.3
20260906000234 31 140 0.0 0.0 0.00 0.00 0.00 66 1015.3
20260905235732 31 140 0.0 0.0 0.00 0.00 0.00 65 1015.6
20260905235227 31 140 0.0 0.0 0.00 0.00 0.00 64 1015.3
20260905234723 31 140 0.0 0.0 0.00 0.00 0.00 64 1015.6
20260905234218 31 140 0.0 0.0 0.00 0.00 0.00 64 1015.4
20260905233713 31 140 0.0 0.0 0.00 0.00 0.00 63 1015.4
20260905233212 32 140 0.0 0.0 0.00 0.00 0.00 62 1015.4
20260905232707 32 140 0.0 0.0 0.00 0.00 0.00 62 1015.5
20260905232203 32 140 0.0 0.0 0.00 0.00 0.00 61 1015.6
20260905231659 32 139 0.0 0.0 0.00 0.00 0.00 60 1015.6
20260905231154 32 140 0.0 0.0 0.00 0.00 0.00 59 1015.5
20260905230650 32 139 0.0 0.0 0.00 0.00 0.00 59 1015.4
20260905230148 33 140 0.0 0.0 0.00 0.00 0.00 58 1015.3
20260905225647 33 134 0.0 0.0 0.00 0.00 0.00 57 1015.1
20260905225142 33 136 0.0 1.6 0.00 0.00 0.00 57 1015.1
20260905224641 33 136 0.0 0.0 0.00 0.00 0.00 56 1015.0
20260905224136 33 123 0.0 1.6 0.00 0.00 0.00 55 1015.0
20260905223633 34 138 0.0 0.0 0.00 0.00 0.00 55 1015.2
20260905223130 34 138 0.0 0.0 0.00 0.00 0.00 53 1015.0
20260905222625 35 123 0.0 1.6 0.00 0.00 0.00 53 1014.8
20260905222120 35 142 0.0 3.2 0.00 0.00 0.00 52 1015.1
20260905221615 35 168 1.6 3.2 0.00 0.00 0.00 51 1015.0
20260905221112 35 152 1.6 1.6 0.00 0.00 0.00 51 1014.8
20260905220607 35 148 1.6 3.2 0.00 0.00 0.00 51 1014.9
20260905220103 35 136 1.6 3.2 0.00 0.00 0.00 51 1014.9
20260905215602 36 128 3.2 3.2 0.00 0.00 0.00 51 1015.0
20260905215058 36 206 1.6 3.2 0.00 0.00 0.00 51 1015.1
20260905214554 36 123 3.2 3.2 0.00 0.00 0.00 51 1015.1
20260905214049 35 168 3.2 3.2 0.00 0.00 0.00 51 1015.3
20260905213544 35 142 1.6 4.8 0.00 0.00 0.00 50 1015.1
20260905213039 36 162 1.6 4.8 0.00 0.00 0.00 49 1015.0
20260905212534 36 117 1.6 3.2 0.00 0.00 0.00 49 1015.2
20260905212034 36 115 4.8 4.8 0.00 0.00 0.00 49 1015.0
20260905211529 36 43 3.2 8.0 0.00 0.00 0.00 49 1015.2
20260905211025 36 3 4.8 9.7 0.00 0.00 0.00 49 1015.4
20260905210520 36 182 4.8 4.8 0.00 0.00 0.00 49 1015.3
20260905210020 36 132 1.6 1.6 0.00 0.00 0.00 49 1015.4
20260905205520 36 76 3.2 3.2 0.00 0.00 0.00 49 1015.4
20260905205019 36 134 3.2 3.2 0.00 0.00 0.00 49 1015.4
20260905204514 36 139 3.2 3.2 0.00 0.00 0.00 49 1015.2
20260905204009 36 118 1.6 3.2 0.00 0.00 0.00 48 1015.6
20260905203504 36 122 3.2 4.8 0.00 0.00 0.00 48 1015.5
20260905202959 36 2 4.8 4.8 0.00 0.00 0.00 48 1015.7
20260905202454 36 121 3.2 4.8 0.00 0.00 0.00 47 1015.6
20260905201949 37 260 3.2 4.8 0.00 0.00 0.00 46 1015.7
20260905201445 38 160 3.2 3.2 0.00 0.00 0.00 45 1015.8
20260905200944 38 106 1.6 3.2 0.00 0.00 0.00 45 1015.8
20260905200440 37 153 1.6 3.2 0.00 0.00 0.00 46 1016.0
20260905195939 37 161 1.6 3.2 0.00 0.00 0.00 46 1015.8
20260905195434 37 157 1.6 3.2 0.00 0.00 0.00 47 1015.9
20260905194930 37 140 1.6 1.6 0.00 0.00 0.00 47 1016.0
20260905194428 37 159 0.0 1.6 0.00 0.00 0.00 47 1016.2
20260905193923 37 141 0.0 3.2 0.00 0.00 0.00 47 1016.1
20260905193418 37 167 1.6 4.8 0.00 0.00 0.00 46 1016.1
20260905192913 37 155 0.0 1.6 0.00 0.00 0.00 47 1016.5
20260905192408 37 133 0.0 1.6 0.00 0.00 0.00 47 1016.4
20260905191903 37 117 1.6 3.2 0.00 0.00 0.00 47 1016.5
20260905191402 37 155 0.0 3.2 0.00 0.00 0.00 47 1016.8
20260905190901 36 153 1.6 3.2 0.00 0.00 0.00 49 1016.7
20260905190354 36 113 1.6 3.2 0.00 0.00 0.00 48 1016.9
20260905185853 37 163 1.6 3.2 0.00 0.00 0.00 48 1016.8
20260905185349 37 133 0.0 3.2 0.00 0.00 0.00 48 1017.0
20260905184848 36 141 1.6 3.2 0.00 0.00 0.00 49 1017.0
20260905184347 36 155 0.0 1.6 0.00 0.00 0.00 48 1017.0
20260905183845 36 154 0.0 3.2 0.00 0.00 0.00 48 1017.3
20260905183341 36 128 0.0 1.6 0.00 0.00 0.00 49 1017.4
20260905182836 36 163 0.0 4.8 0.00 0.00 0.00 47 1017.3
20260905182335 36 153 0.0 0.0 0.00 0.00 0.00 48 1017.4
20260905181831 36 159 0.0 3.2 0.00 0.00 0.00 47 1017.4
20260905181330 36 156 1.6 3.2 0.00 0.00 0.00 47 1017.6
20260905180830 36 155 0.0 1.6 0.00 0.00 0.00 49 1017.3
20260905180325 36 137 0.0 3.2 0.00 0.00 0.00 48 1017.7
20260905175820 36 203 1.6 3.2 0.00 0.00 0.00 48 1017.8
20260905175314 36 179 1.6 1.6 0.00 0.00 0.00 47 1017.6
20260905174809 36 255 0.0 3.2 0.00 0.00 0.00 49 1017.9
20260905174305 36 136 0.0 1.6 0.00 0.00 0.00 49 1017.9
20260905173801 36 170 1.6 3.2 0.00 0.00 0.00 51 1017.8
20260905173257 35 158 1.6 3.2 0.00 0.00 0.00 50 1017.9
20260905172756 35 166 1.6 3.2 0.00 0.00 0.00 50 1018.1
20260905172255 35 152 0.0 3.2 0.00 0.00 0.00 50 1017.9
20260905171751 35 164 0.0 3.2 0.00 0.00 0.00 51 1018.0
20260905171248 35 142 0.0 3.2 0.00 0.00 0.00 51 1018.1
20260905170744 35 147 0.0 3.2 0.00 0.00 0.00 50 1018.3
20260905170239 35 142 1.6 4.8 0.00 0.00 0.00 50 1018.1
20260905165738 35 130 0.0 3.2 0.00 0.00 0.00 50 1018.4
20260905165234 35 123 0.0 1.6 0.00 0.00 0.00 50 1018.4
20260905164734 35 133 0.0 4.8 0.00 0.00 0.00 49 1018.4
20260905164228 35 186 1.6 3.2 0.00 0.00 0.00 49 1018.4
20260905163725 35 151 1.6 3.2 0.00 0.00 0.00 49 1018.4
20260905163220 34 176 1.6 3.2 0.00 0.00 0.00 49 1018.8
20260905162717 34 156 1.6 3.2 0.00 0.00 0.00 50 1018.9
20260905162216 34 156 1.6 3.2 0.00 0.00 0.00 49 1018.9
20260905161711 34 166 1.6 4.8 0.00 0.00 0.00 50 1019.1
20260905161209 33 147 1.6 1.6 0.00 0.00 0.00 51 1018.8
20260905160708 33 153 1.6 1.6 0.00 0.00 0.00 51 1018.9
20260905160208 33 142 1.6 1.6 0.00 0.00 0.00 52 1018.9
20260905155702 33 165 1.6 1.6 0.00 0.00 0.00 52 1018.9
20260905155202 33 167 1.6 3.2 0.00 0.00 0.00 53 1019.0
20260905154655 32 197 1.6 1.6 0.00 0.00 0.00 55 1018.9
20260905154151 32 181 1.6 3.2 0.00 0.00 0.00 54 1018.8
20260905153641 32 152 0.0 1.6 0.00 0.00 0.00 55 1018.9
20260905153136 32 176 3.2 3.2 0.00 0.00 0.00 55 1018.9
20260905152631 32 140 0.0 1.6 0.00 0.00 0.00 57 1019.1
20260905152126 31 134 1.6 3.2 0.00 0.00 0.00 58 1018.9
20260905151621 31 141 0.0 1.6 0.00 0.00 0.00 59 1019.0
20260905151116 31 156 1.6 1.6 0.00 0.00 0.00 60 1019.1
20260905150611 30 154 0.0 1.6 0.00 0.00 0.00 62 1019.1
20260905150109 30 151 1.6 3.2 0.00 0.00 0.00 63 1019.2
20260905145603 30 144 0.0 3.2 0.00 0.00 0.00 65 1019.3
20260905145102 30 152 0.0 0.0 0.00 0.00 0.00 66 1019.4
20260905144557 29 154 1.6 4.8 0.00 0.00 0.00 67 1019.4
20260905144056 28 144 0.0 1.6 0.00 0.00 0.00 69 1019.5
20260905143555 28 152 1.6 1.6 0.00 0.00 0.00 71 1019.4
20260905143051 28 139 0.0 1.6 0.00 0.00 0.00 73 1019.5
20260905142549 28 154 1.6 3.2 0.00 0.00 0.00 75 1019.5
20260905142044 27 147 0.0 1.6 0.00 0.00 0.00 77 1019.4
20260905141538 27 150 0.0 3.2 0.00 0.00 0.00 79 1019.4
20260905141035 27 149 0.0 1.6 0.00 0.00 0.00 81 1019.8
20260905140530 26 146 0.0 1.6 0.00 0.00 0.00 81 1019.6
20260905140029 26 155 1.6 1.6 0.00 0.00 0.00 82 1019.7
20260905135525 26 153 0.0 1.6 0.00 0.00 0.00 83 1019.8
20260905135019 26 158 1.6 3.2 0.00 0.00 0.00 83 1019.9
20260905134514 25 156 0.0 1.6 0.00 0.00 0.00 84 1019.8
20260905134013 25 157 0.0 1.6 0.00 0.00 0.00 85 1020.1
20260905133509 25 151 0.0 1.6 0.00 0.00 0.00 86 1020.3
20260905133008 25 145 0.0 0.0 0.00 0.00 0.00 86 1020.3
20260905132503 25 142 1.6 1.6 0.00 0.00 0.00 87 1020.2
20260905132003 25 165 0.0 1.6 0.00 0.00 0.00 88 1020.4
20260905131459 24 147 0.0 3.2 0.00 0.00 0.00 89 1020.3
20260905130954 24 153 0.0 1.6 0.00 0.00 0.00 90 1020.3
20260905130453 24 148 0.0 1.6 0.00 0.00 0.00 91 1020.4
20260905125952 24 150 0.0 1.6 0.00 0.00 0.00 91 1020.1
20260905125447 24 146 0.0 1.6 0.00 0.00 0.00 92 1020.3
20260905124943 23 146 0.0 1.6 0.00 0.00 0.00 93 1020.3
20260905124439 23 150 1.6 1.6 0.00 0.00 0.00 94 1020.3
20260905123934 23 143 0.0 4.8 0.00 0.00 0.00 94 1020.6
20260905123431 23 150 1.6 1.6 0.00 0.00 0.00 94 1020.5
20260905122926 23 153 0.0 0.0 0.00 0.00 0.00 94 1020.0
20260905122425 23 149 0.0 0.0 0.00 0.00 0.00 94 1020.1
20260905121921 23 141 0.0 3.2 0.00 0.00 0.00 93 1019.8
20260905121417 23 138 0.0 3.2 0.00 0.00 0.00 93 1019.8
20260905120915 23 139 1.6 1.6 0.00 0.00 0.00 93 1019.0
20260905120410 23 144 0.0 0.0 0.00 0.00 0.00 93 1018.9
20260905115904 23 144 0.0 0.0 0.00 0.00 0.00 92 1018.8
20260905115403 23 159 0.0 3.2 0.00 0.00 0.00 92 1018.8
20260905114853 23 147 1.6 1.6 0.00 0.00 0.00 92 1018.4
20260905114352 23 149 0.0 0.0 0.00 0.00 0.00 92 1018.5
20260905113846 23 154 0.0 0.0 0.00 0.00 0.00 92 1018.5
20260905113342 23 154 0.0 0.0 0.00 0.00 0.00 91 1018.5
20260905112837 23 154 0.0 0.0 0.00 0.00 0.00 91 1018.5
20260905112332 23 155 0.0 1.6 0.00 0.00 0.00 91 1018.4
20260905111827 23 149 0.0 0.0 0.00 0.00 0.00 91 1018.5
20260905111321 23 154 0.0 1.6 0.00 0.00 0.00 90 1018.4
20260905110820 23 139 0.0 0.0 0.00 0.00 0.00 90 1018.5
20260905110314 23 139 0.0 0.0 0.00 0.00 0.00 90 1018.2
20260905105810 23 150 0.0 0.0 0.00 0.00 0.00 90 1018.1
20260905105309 23 143 0.0 0.0 0.00 0.00 0.00 90 1018.0
20260905104803 23 143 0.0 0.0 0.00 0.00 0.00 90 1018.0
20260905104300 23 147 0.0 0.0 0.00 0.00 0.00 90 1017.8
20260905103759 23 145 0.0 0.0 0.00 0.00 0.00 89 1017.9
20260905103255 23 145 0.0 0.0 0.00 0.00 0.00 89 1017.7
20260905102750 23 145 0.0 1.6 0.00 0.00 0.00 89 1017.9
20260905102247 23 149 0.0 1.6 0.00 0.00 0.00 89 1017.9
20260905101741 23 155 1.6 1.6 0.00 0.00 0.00 89 1017.8
20260905101239 23 140 0.0 0.0 0.00 0.00 0.00 89 1017.7
20260905100734 23 147 0.0 0.0 0.00 0.00 0.00 89 1018.0